Date String (YYYY-MM-DD hh:mm:ss) UTC,Instrument flags,Ambient pressure (hPa),Sample flow (lpm),Bypass flow (lpm),Sample temperature (°C),Ambient temperature (°C),ASC tube jacket temperature (°C),LED temperature (°C),Box temperature (°C),Sample RH (%),Span deviation,Mass concentration (μg/m³),Mass concentration (μg/m³),Mass concentration (μg/m³)
DateTimeUTC,F1_M11,P_M11,Q1_M11,Q2_M11,T1_M11,T2_M11,T3_M11,T4_M11,T5_M11,U1_M11,ZSPAN_M11,X2_M11,X0_M11,X1_M11
2022-03-09 19:00:00,,0821.1,5.01,0.00,23.2,22.7,00.0,32.3,24.7,06.8,0000.0,0002.22,0003.83,0001.76
2022-03-09 19:01:00,,0821.1,5.00,0.00,23.1,22.5,00.0,32.3,24.6,06.9,0000.0,0002.26,0004.01,0001.78
2022-03-09 19:02:00,,0821.0,5.00,0.00,23.1,22.9,00.0,32.3,24.7,06.9,0000.0,0002.26,0004.02,0001.77
2022-03-09 19:03:00,,0821.0,5.00,0.00,23.3,23.6,00.0,32.3,25.0,07.0,0000.0,0002.29,0004.06,0001.77
2022-03-09 19:04:00,,0821.0,4.99,0.00,23.4,23.9,00.0,32.3,25.2,07.0,0000.0,0002.30,0005.13,0001.76
2022-03-09 19:05:00,,0821.0,5.00,0.00,23.4,23.6,00.0,32.3,25.1,06.9,0000.0,0002.21,0005.17,0001.75
2022-03-09 19:06:00,,0821.0,5.00,0.00,23.3,23.2,00.0,32.3,24.9,06.8,0000.0,0002.22,0005.24,0001.75
2022-03-09 19:07:00,,0821.0,5.00,0.00,23.2,22.8,00.0,32.3,24.7,06.8,0000.0,0002.19,0005.11,0001.74
2022-03-09 19:08:00,,0821.0,5.02,0.00,23.1,22.6,00.0,32.3,24.6,06.7,0000.0,0002.17,0005.19,0001.73
2022-03-09 19:09:00,,0821.1,5.00,0.00,23.2,23.1,00.0,32.3,24.8,06.5,0000.0,0002.16,0005.24,0001.71
2022-03-09 19:10:00,,0821.1,4.98,0.00,23.3,23.8,00.0,32.3,25.1,06.5,0000.0,0002.13,0005.23,0001.69
2022-03-09 19:11:00,,0821.0,5.00,0.00,23.4,23.6,00.0,32.3,25.2,06.5,0000.0,0002.10,0005.15,0001.68
2022-03-09 19:12:00,,0821.0,5.00,0.00,23.3,23.2,00.0,32.3,25.1,06.5,0000.0,0002.05,0004.93,0001.66
2022-03-09 19:13:00,,0821.1,5.01,0.00,23.3,22.9,00.0,32.3,24.9,06.3,0000.0,0002.05,0004.89,0001.67
2022-03-09 19:14:00,,0821.1,5.00,0.00,23.2,22.6,00.0,32.3,24.8,06.3,0000.0,0002.03,0004.84,0001.68
2022-03-09 19:15:00,,0821.2,4.99,0.00,23.1,22.4,00.0,32.3,24.7,06.4,0000.0,0002.01,0003.60,0001.69
2022-03-09 19:16:00,,0821.1,5.00,0.00,23.1,22.6,00.0,32.3,24.7,06.5,0000.0,0001.97,0002.87,0001.69
2022-03-09 19:17:00,,0821.1,5.00,0.00,23.2,23.4,00.0,32.3,25.0,06.5,0000.0,0001.93,0002.74,0001.68
2022-03-09 19:18:00,,0821.1,5.01,0.00,23.4,24.0,00.0,32.3,25.2,06.5,0000.0,0001.96,0002.80,0001.67
2022-03-09 19:19:00,,0821.1,5.01,0.00,23.4,23.9,00.0,32.3,25.3,06.5,0000.0,0001.96,0002.68,0001.67
2022-03-09 19:20:00,,0821.1,5.00,0.00,23.4,23.5,00.0,32.3,25.1,06.5,0000.0,0001.95,0003.21,0001.68
2022-03-09 19:21:00,,0821.1,5.00,0.00,23.3,23.1,00.0,32.3,25.0,06.5,0000.0,0001.97,0004.24,0001.69
2022-03-09 19:22:00,,0821.1,4.99,0.00,23.3,22.8,00.0,32.3,24.8,06.6,0000.0,0001.98,0004.27,0001.69
2022-03-09 19:23:00,,0821.1,4.99,0.00,23.2,22.6,00.0,32.3,24.8,06.6,0000.0,0002.02,0004.41,0001.70
2022-03-09 19:24:00,,0821.2,5.01,0.00,23.3,23.1,00.0,32.3,24.9,06.6,0000.0,0002.03,0004.53,0001.67
2022-03-09 19:25:00,,0821.2,5.00,0.00,23.4,23.8,00.0,32.4,25.2,06.6,0000.0,0002.00,0004.49,0001.65
2022-03-09 19:26:00,,0821.2,5.01,0.00,23.5,24.1,00.0,32.4,25.4,06.4,0000.0,0002.00,0004.52,0001.64
2022-03-09 19:27:00,,0821.2,5.00,0.00,23.5,23.7,00.0,32.4,25.2,06.3,0000.0,0002.04,0004.65,0001.65
2022-03-09 19:28:00,,0821.2,5.00,0.00,23.4,23.3,00.0,32.4,25.1,06.4,0000.0,0002.03,0004.61,0001.65
2022-03-09 19:29:00,,0821.2,5.01,0.00,23.4,22.9,00.0,32.4,25.0,06.4,0000.0,0002.01,0004.59,0001.67
2022-03-09 19:30:00,,0821.2,5.00,0.00,23.3,22.6,00.0,32.3,24.8,06.4,0000.0,0002.03,0004.70,0001.66
2022-03-09 19:31:00,,0821.2,4.99,0.00,23.2,22.8,00.0,32.3,24.9,06.4,0000.0,0002.04,0004.30,0001.66
2022-03-09 19:32:00,,0821.3,5.01,0.00,23.4,23.5,00.0,32.4,25.1,06.3,0000.0,0002.02,0003.03,0001.64
2022-03-09 19:33:00,,0821.3,4.99,0.00,23.5,23.8,00.0,32.4,25.3,06.3,0000.0,0002.01,0003.05,0001.64
2022-03-09 19:34:00,,0821.2,5.01,0.00,23.5,23.4,00.0,32.4,25.2,06.5,0000.0,0002.04,0003.16,0001.64
2022-03-09 19:35:00,,0821.2,5.00,0.00,23.4,23.0,00.0,32.4,25.0,06.6,0000.0,0002.07,0003.20,0001.67
2022-03-09 19:36:00,,0821.2,4.99,0.00,23.3,22.7,00.0,32.4,24.9,06.8,0000.0,0002.12,0003.40,0001.67
2022-03-09 19:37:00,,0821.2,5.01,0.00,23.2,22.5,00.0,32.3,24.7,06.8,0000.0,0002.12,0003.40,0001.68
2022-03-09 19:38:00,,0821.2,5.00,0.00,23.2,22.7,00.0,32.3,24.8,06.7,0000.0,0002.09,0003.35,0001.68
2022-03-09 19:39:00,,0821.2,4.99,0.00,23.3,23.4,00.0,32.4,25.0,06.7,0000.0,0002.10,0003.39,0001.68
2022-03-09 19:40:00,,0821.2,4.99,0.00,23.4,23.9,00.0,32.4,25.2,06.6,0000.0,0002.12,0003.49,0001.68
2022-03-09 19:41:00,,0821.2,5.00,0.00,23.5,23.7,00.0,32.4,25.2,06.5,0000.0,0002.11,0003.89,0001.68
2022-03-09 19:42:00,,0821.3,5.00,0.00,23.4,23.3,00.0,32.4,25.1,06.4,0000.0,0002.15,0004.11,0001.69
2022-03-09 19:43:00,,0821.2,4.99,0.00,23.3,23.0,00.0,32.4,24.9,06.6,0000.0,0002.20,0004.26,0001.69
2022-03-09 19:44:00,,0821.2,5.02,0.00,23.2,22.7,00.0,32.3,24.8,06.6,0000.0,0002.20,0004.29,0001.69
2022-03-09 19:45:00,,0821.2,4.99,0.00,23.2,22.5,00.0,32.3,24.6,06.6,0000.0,0002.18,0004.13,0001.69
2022-03-09 19:46:00,,0821.2,5.00,0.00,23.2,23.1,00.0,32.3,24.9,06.6,0000.0,0002.18,0004.10,0001.68
2022-03-09 19:47:00,,0821.2,4.99,0.00,23.4,23.8,00.0,32.4,25.2,06.4,0000.0,0002.18,0004.09,0001.68
2022-03-09 19:48:00,,0821.2,5.02,0.00,23.5,24.0,00.0,32.4,25.3,06.3,0000.0,0002.19,0004.10,0001.68
2022-03-09 19:49:00,,0821.2,5.01,0.00,23.5,23.6,00.0,32.4,25.2,06.4,0000.0,0002.17,0004.05,0001.67
2022-03-09 19:50:00,,0821.1,4.99,0.00,23.4,23.2,00.0,32.4,25.1,06.5,0000.0,0002.18,0004.05,0001.67
2022-03-09 19:51:00,,0821.1,5.00,0.00,23.3,22.8,00.0,32.4,24.9,06.5,0000.0,0002.15,0005.30,0001.65
2022-03-09 19:52:00,,0821.1,4.98,0.00,23.3,22.5,00.0,32.4,24.8,06.6,0000.0,0002.14,0004.89,0001.64
2022-03-09 19:53:00,,0821.2,5.01,0.00,23.2,22.5,00.0,32.3,24.7,06.6,0000.0,0002.09,0004.62,0001.64
2022-03-09 19:54:00,,0821.2,5.00,0.00,23.3,23.1,00.0,32.3,24.9,06.4,0000.0,0002.06,0004.54,0001.64
2022-03-09 19:55:00,,0821.2,4.98,0.00,23.4,23.7,00.0,32.4,25.1,06.4,0000.0,0002.05,0004.52,0001.64
2022-03-09 19:56:00,,0821.1,5.01,0.00,23.5,23.8,00.0,32.4,25.2,06.3,0000.0,0002.04,0004.69,0001.63
2022-03-09 19:57:00,,0821.1,5.00,0.00,23.4,23.4,00.0,32.4,25.0,06.3,0000.0,0002.03,0004.91,0001.63
2022-03-09 19:58:00,,0821.1,5.00,0.00,23.3,23.0,00.0,32.4,24.8,06.4,0000.0,0002.02,0004.87,0001.63
2022-03-09 19:59:00,,0821.1,5.01,0.00,23.2,22.7,00.0,32.3,24.7,06.5,0000.0,0002.03,0004.84,0001.64
